Chickamauga Lake Weather Center

Moon Phase Calendar



Chickamauga Lake Water Level
Online Cameras

 


      

Current Conditions in Sale Creek
2/26/2024 7:39:25 PM

66°F
Feels Like 64
Clear
Humidity
34%
Pressure
29.91"
Wind
6.9 mph (S)
Dew Point
37°F
UV Index
0/10 (Low)
Visibility
6 mi

Hourly Forecast

Date & Time Mon, Feb 26
7:00 PM
Mon, Feb 26
8:00 PM
Mon, Feb 26
9:00 PM
Mon, Feb 26
10:00 PM
Mon, Feb 26
11:00 PM
Tue, Feb 27
12:00 AM
Tue, Feb 27
1:00 AM
Tue, Feb 27
2:00 AM
Tue, Feb 27
3:00 AM
Tue, Feb 27
4:00 AM
Tue, Feb 27
5:00 AM
Tue, Feb 27
6:00 AM
Tue, Feb 27
7:00 AM
Tue, Feb 27
8:00 AM
Tue, Feb 27
9:00 AM
Tue, Feb 27
10:00 AM
Tue, Feb 27
11:00 AM
Tue, Feb 27
12:00 PM
Tue, Feb 27
1:00 PM
Tue, Feb 27
2:00 PM
Tue, Feb 27
3:00 PM
Tue, Feb 27
4:00 PM
Tue, Feb 27
5:00 PM
Tue, Feb 27
6:00 PM
Tue, Feb 27
7:00 PM
Tue, Feb 27
8:00 PM
Tue, Feb 27
9:00 PM
Tue, Feb 27
10:00 PM
Tue, Feb 27
11:00 PM
Wed, Feb 28
12:00 AM
Wed, Feb 28
1:00 AM
Wed, Feb 28
2:00 AM
Wed, Feb 28
3:00 AM
Wed, Feb 28
4:00 AM
Wed, Feb 28
5:00 AM
Wed, Feb 28
6:00 AM
Wed, Feb 28
7:00 AM
Wed, Feb 28
8:00 AM
Wed, Feb 28
9:00 AM
Wed, Feb 28
10:00 AM
Wed, Feb 28
11:00 AM
Wed, Feb 28
12:00 PM
Wed, Feb 28
1:00 PM
Wed, Feb 28
2:00 PM
Wed, Feb 28
3:00 PM
Wed, Feb 28
4:00 PM
Wed, Feb 28
5:00 PM
Wed, Feb 28
6:00 PM
Condition
Clouds

Clear

Clouds

Clouds

Clouds

Clouds

Clouds

Rain

Clouds

Rain

Rain

Rain

Rain

Rain

Rain

Rain

Clouds

Clouds

Rain

Rain

Clouds

Rain

Rain

Rain

Clouds

Clouds

Clouds

Rain

Clouds

Clouds

Clouds

Clouds

Clouds

Clouds

Clouds

Clouds

Clouds

Clouds

Rain

Rain

Rain

Rain

Rain

Clouds

Clouds

Clouds

Clouds

Clouds
Temperature 65°F66°F64°F62°F59°F56°F54°F53°F53°F53°F54°F55°F55°F56°F57°F57°F59°F60°F63°F67°F65°F66°F65°F65°F65°F65°F65°F66°F65°F64°F64°F64°F63°F63°F63°F63°F63°F63°F63°F63°F53°F45°F41°F41°F43°F47°F45°F43°F
Feels Like 63°F64°F62°F60°F57°F55°F52°F52°F52°F53°F54°F54°F55°F56°F57°F57°F59°F60°F63°F67°F65°F66°F65°F65°F65°F65°F65°F66°F65°F65°F64°F64°F63°F63°F63°F62°F62°F63°F63°F63°F52°F37°F33°F34°F37°F41°F40°F37°F
Cloudiness 14%0%20%40%55%74%93%100%100%100%100%100%100%100%100%100%100%100%100%100%100%100%100%100%100%100%100%100%100%100%100%100%100%100%100%100%100%100%100%100%100%100%100%100%100%100%100%100%
Visibility 6 mi6 mi6 mi6 mi6 mi6 mi6 mi6 mi6 mi6 mi6 mi6 mi6 mi6 mi6 mi6 mi6 mi6 mi6 mi6 mi6 mi6 mi6 mi6 mi6 mi6 mi6 mi6 mi6 mi6 mi6 mi6 mi6 mi6 mi6 mi6 mi6 mi6 mi6 mi6 mi6 mi3 mi6 mi6 mi6 mi6 mi6 mi6 mi
Precipitation 0%0%0%0%3%3%0%72%81%85%87%95%95%69%72%60%58%58%54%66%65%85%79%76%70%20%27%25%25%24%32%4%0%0%0%13%20%17%44%53%78%100%100%43%31%31%25%21%
Humidity 41%34%43%51%61%70%80%86%89%92%93%95%95%95%95%95%91%89%84%76%78%79%82%82%82%83%83%80%80%83%84%84%83%83%82%81%81%81%83%84%89%88%86%79%70%53%50%51%
Dew Point 40°F37°F41°F43°F45°F47°F47°F48°F49°F50°F52°F53°F53°F54°F55°F55°F56°F56°F57°F58°F58°F59°F59°F59°F59°F59°F59°F59°F59°F59°F58°F58°F58°F57°F57°F56°F56°F56°F57°F58°F49°F41°F37°F34°F33°F30°F28°F25°F
Pressure 29.91"29.91"29.91"29.94"29.94"29.94"29.94"29.94"29.91"29.88"29.88"29.85"29.85"29.88"29.91"29.88"29.88"29.88"29.85"29.83"29.8"29.8"29.77"29.77"29.77"29.77"29.77"29.8"29.8"29.77"29.77"29.77"29.77"29.77"29.77"29.77"29.8"29.8"29.83"29.85"29.94"30.03"30.12"30.18"30.24"30.24"30.27"30.3"
Wind Speed 8.5 mph7.9 mph6.8 mph7.1 mph6.9 mph8.3 mph8.5 mph9.7 mph10.1 mph10.7 mph10.7 mph12 mph12 mph10.2 mph10.4 mph13.8 mph12.4 mph12.7 mph14.1 mph15.5 mph15.8 mph14.8 mph14.2 mph14.5 mph16.3 mph16.1 mph15.4 mph15.5 mph16 mph17.8 mph16.5 mph16.5 mph16.6 mph14.6 mph14.8 mph15 mph15.1 mph15.2 mph14.8 mph15 mph15.9 mph16.2 mph14.5 mph12.8 mph9.9 mph12.2 mph10.2 mph8.9 mph
Wind
Direction
191°
S
186°
S
177°
S
178°
S
183°
S
184°
S
188°
S
183°
S
182°
S
180°
S
187°
S
174°
S
180°
S
184°
S
188°
S
181°
S
185°
S
189°
S
194°
SSW
195°
SSW
194°
SSW
202°
SSW
189°
S
189°
S
186°
S
186°
S
194°
SSW
198°
SSW
194°
SSW
193°
SSW
197°
SSW
197°
SSW
200°
SSW
202°
SSW
200°
SSW
197°
SSW
206°
SSW
211°
SSW
217°
SW
224°
SW
303°
WNW
307°
NW
320°
NW
327°
NNW
337°
NNW
341°
NNW
343°
NNW
348°
NNW

Daily Forecast

Date High Low Precip. Humidity
Today
Feb 26

Rain
69 °F
43 °F
52%
52%
Tuesday
Feb 27

Rain
67 °F
53 °F
95%
89%
Wednesday
Feb 28

Rain
64 °F
34 °F
100%
88%
Thursday
Feb 29

Clouds
52 °F
32 °F
0%
34%
Friday
Mar 1

Rain
47 °F
42 °F
100%
97%
Saturday
Mar 2

Rain
64 °F
48 °F
81%
90%
Sunday
Mar 3

Rain
65 °F
55 °F
28%
85%
Monday
Mar 4

Rain
59 °F
56 °F
100%
95%
Tuesday
Mar 5

Clouds
58 °F
45 °F
52%
88%
Wednesday
Mar 6

Clouds
63 °F
39 °F
0%
46%
Thursday
Mar 7

Rain
55 °F
51 °F
100%
97%
Friday
Mar 8

Rain
69 °F
50 °F
96%
76%
Saturday
Mar 9

Rain
59 °F
42 °F
100%
62%
Sunday
Mar 10

Clear
63 °F
35 °F
0%
43%
Monday
Mar 11

Clouds
60 °F
47 °F
32%
52%
Tuesday
Mar 12

Rain
66 °F
52 °F
100%
87%

Temperature 8-14 Day Outlook



Precipitation 8-14 Day Outlook




Quick Links
Chickamauga Lake News
Chickamauga Lake Photos
Chickamauga Lake Videos




About Us
Contact Us
Site Map
Search Site
Advertise With Us
   
www.ChickamaugaLake.info
THE CHICKAMAUGA LAKE WEBSITE

Copyright 2024, Lakes Online
Privacy    |    Legal